Location: Tamazert
(32.6352°N, 5.2072°W)
Time: 15:43:47
(UTC+00:00)

Vanguard 3 - Pass Details

Date: 06 October 2022
Orbit: 509 x 3255 km, 33.3° (Epoch: 08 December)

Event Time Altitude Azimuth Distance (km) Brightness Sun altitude
Rises 05:39:38 0° 210° (SSW) 2,892 9.7 -8.9°
Reaches altitude 10° 05:43:04 10° 182° (S) 1,784 8.9 -8.2°
Maximum altitude 05:45:00 13° 151° (SSE) 1,522 9.0 -7.8°
Drops below altitude 10° 05:46:49 10° 121° (ESE) 1,699 9.9 -7.4°
Sets 05:50:02 0° 91° (E) 2,676 12.6 -6.8°
